This demonstration page uses our WeatherBlox Daily Observations layout. Learn more.

Left ArrowRight Arrow

Hourly Observations for May 29, 2022

Temp ( °F °C ) Dew Point ( °F °C ) Humidity (%) Winds ( mph kmh ) Pressure ( in mb ) Visibility ( mi km ) Precip ( " mm )
12:56 am 00:56 Clear 75 23.9 67 19.4 76 76 SSE 17 28 29.33 993 10 16 0.00 0.00
1:56 am 01:56 Clear 74 23.3 67 19.4 79 79 SSE 18 30 29.31 992 10 16 0.00 0.00
2:56 am 02:56 Clear 72 22.2 67 19.4 84 84 SSE 10 17 29.30 992 10 16 0.00 0.00
3:56 am 03:56 Clear 70 21.1 66 18.9 87 87 SSE 8 13 29.29 992 10 16 0.00 0.00
4:56 am 04:56 Clear 68 20 65 18.3 90 90 Calm 29.28 992 10 16 0.00 0.00
5:56 am 05:56 Clear 68 20 65 18.3 90 90 SSE 5 7 29.29 992 10 16 0.00 0.00
6:56 am 06:56 Sunny 66 18.9 64 17.8 93 93 ESE 3 6 29.30 992 10 16 0.00 0.00
7:56 am 07:56 Sunny 67 19.4 65 18.3 93 93 N 5 7 29.30 992 10 16 0.00 0.00
8:56 am 08:56 Sunny 70 21.1 65 18.3 84 84 Calm 29.31 993 10 16 0.00 0.00
9:56 am 09:56 Sunny 73 22.8 64 17.8 74 74 W 6 9 29.30 992 10 16 0.00 0.00
10:56 am 10:56 Sunny 76 24.4 67 19.4 74 74 NNW 12 19 29.29 992 10 16 0.00 0.00
11:56 am 11:56 Sunny 77 25 68 20 74 74 N 12 19 29.30 992 10 16 0.00 0.00
12:28 pm 12:28 Mostly Cloudy 79 26 68 20 70 70 NNE 8 13 29.25 991 10 16 0.00 0.00
12:56 pm 12:56 Cloudy 78 25.6 68 20 71 71 NNE 12 19 29.31 993 10 16 0.00 0.00
1:15 pm 13:15 Mostly Cloudy 79 26 70 21 74 74 NE 12 19 29.25 991 10 16 0.00 0.00
1:56 pm 13:56 Partly Cloudy 80 26.7 69 20.6 69 69 NNE 10 17 29.31 992 9 14 0.00 0.00
2:56 pm 14:56 Partly Cloudy 80 26.7 67 19.4 64 64 ENE 6 9 29.30 992 10 16 0.00 0.00
3:56 pm 15:56 Mostly Sunny 80 26.7 65 18.3 60 60 E 8 13 29.29 992 10 16 0.00 0.00
4:56 pm 16:56 Sunny 81 27.2 60 15.6 49 49 SSE 9 15 29.30 992 10 16 0.00 0.00
5:56 pm 17:56 Sunny 83 28.3 61 16.1 48 48 S 7 11 29.31 992 10 16 0.00 0.00
6:56 pm 18:56 Sunny 84 28.9 60 15.6 44 44 WSW 5 7 29.29 992 10 16 0.00 0.00
7:56 pm 19:56 Sunny 83 28.3 64 17.8 53 53 S 9 15 29.30 992 10 16 0.00 0.00
8:56 pm 20:56 Sunny 77 25 65 18.3 66 66 SE 8 13 29.31 992 10 16 0.00 0.00
9:56 pm 21:56 Clear 75 23.9 62 16.7 64 64 SE 12 19 29.29 992 10 16 0.00 0.00
10:56 pm 22:56 Clear 78 25.6 67 19.4 69 69 SSE 28 44 29.27 991 10 16 0.00 0.00
11:56 pm 23:56 Clear 77 25 67 19.4 71 71 SSE 28 44 29.23 990 10 16 0.00 0.00

Powered by AerisWeather